EZY97WC EGKK-LEIB

Flight info

Callsign EZY97WC
Flight time N/A
Altitude 31000
Route SFD Y47 DRAKE L151 SITET UN859 SOPIL DCT BALAN DCT EVPOK DCT NARAK DCT GAI DCT LOMRA DCT ROCAN DCT PUMAL DCT XEPLA DCT BCN DCT CORDA
Aircraft A20N/M-SDE2E3FGHIRWXY/LB1

Departure

Time N/A
Airport London Gatwick Airport (EGKK)

Arrival

Time 2026-05-07 18:44
Airport Ibiza Airport (LEIB)
Time Latitude Longitude Altitude Speed Heading
2026-05-07 17:20 46.53008 1.03502 30974 ft 435 kts 180°
2026-05-07 17:20 46.49981 1.03937 30972 ft 438 kts 174°
2026-05-07 17:20 46.44043 1.05843 30971 ft 440 kts 170°
2026-05-07 17:21 46.38074 1.07860 30967 ft 439 kts 170°
2026-05-07 17:21 46.32127 1.09846 30965 ft 439 kts 170°
2026-05-07 17:22 46.26149 1.11834 30969 ft 440 kts 170°
2026-05-07 17:22 46.20204 1.13807 30963 ft 440 kts 170°
2026-05-07 17:23 46.14235 1.15785 30965 ft 439 kts 170°
2026-05-07 17:23 46.08269 1.17758 30964 ft 439 kts 170°
2026-05-07 17:24 46.02332 1.19715 30955 ft 439 kts 171°
2026-05-07 17:24 45.96361 1.21679 30955 ft 440 kts 171°
2026-05-07 17:25 45.90415 1.23632 30980 ft 440 kts 171°
2026-05-07 17:25 45.84442 1.25589 30971 ft 439 kts 171°
2026-05-07 17:26 45.78520 1.27524 30965 ft 439 kts 171°
2026-05-07 17:26 45.72549 1.29472 30964 ft 438 kts 171°
2026-05-07 17:27 45.66621 1.31401 30957 ft 438 kts 171°
2026-05-07 17:27 45.60704 1.33323 30950 ft 438 kts 171°
2026-05-07 17:28 45.54739 1.35255 30948 ft 437 kts 171°
2026-05-07 17:28 45.48831 1.37166 30949 ft 437 kts 171°
2026-05-07 17:29 45.42882 1.39085 30949 ft 437 kts 171°
2026-05-07 17:29 45.36975 1.40987 30946 ft 437 kts 171°
2026-05-07 17:30 45.31058 1.42888 30959 ft 437 kts 171°
2026-05-07 17:30 45.25102 1.44797 30958 ft 437 kts 171°
2026-05-07 17:31 45.19192 1.46688 30958 ft 437 kts 171°
2026-05-07 17:31 45.13253 1.48584 30968 ft 437 kts 171°
2026-05-07 17:32 45.07347 1.50465 30967 ft 436 kts 171°
2026-05-07 17:32 45.01412 1.52351 30965 ft 436 kts 171°
2026-05-07 17:33 44.95512 1.54223 30945 ft 436 kts 171°
2026-05-07 17:33 44.89585 1.56099 30947 ft 436 kts 171°
2026-05-07 17:34 44.83649 1.57974 30953 ft 437 kts 171°
2026-05-07 17:34 44.77712 1.59844 30950 ft 437 kts 171°
2026-05-07 17:35 44.71797 1.61705 30955 ft 438 kts 171°
2026-05-07 17:35 44.65840 1.63574 30955 ft 438 kts 171°
2026-05-07 17:36 44.59903 1.65434 30944 ft 438 kts 171°
2026-05-07 17:36 44.53955 1.67293 30955 ft 437 kts 171°
2026-05-07 17:37 44.48042 1.69137 30956 ft 437 kts 171°
2026-05-07 17:37 44.42128 1.70978 30954 ft 437 kts 171°
2026-05-07 17:38 44.36176 1.72827 30953 ft 436 kts 171°
2026-05-07 17:38 44.30278 1.74655 30949 ft 435 kts 171°
2026-05-07 17:39 44.24326 1.76043 30942 ft 433 kts 174°
2026-05-07 17:39 44.18401 1.77352 30942 ft 433 kts 174°
2026-05-07 17:40 44.12439 1.78669 30937 ft 432 kts 174°
2026-05-07 17:40 44.06513 1.79975 30935 ft 432 kts 174°
2026-05-07 17:41 44.00583 1.81280 30928 ft 432 kts 174°
2026-05-07 17:41 43.94661 1.82500 30934 ft 430 kts 178°
2026-05-07 17:42 43.88692 1.83078 30935 ft 429 kts 179°
2026-05-07 17:42 43.82753 1.83649 30937 ft 429 kts 179°
2026-05-07 17:43 43.76829 1.84223 30946 ft 428 kts 179°
2026-05-07 17:43 43.70875 1.84800 30945 ft 428 kts 179°
2026-05-07 17:44 43.64929 1.85374 30940 ft 428 kts 179°
2026-05-07 17:44 43.59032 1.85944 30948 ft 427 kts 179°
2026-05-07 17:45 43.53096 1.86515 30941 ft 427 kts 179°
2026-05-07 17:45 43.47174 1.87083 30933 ft 427 kts 179°
2026-05-07 17:46 43.41266 1.87650 30918 ft 427 kts 180°
2026-05-07 17:46 43.35382 1.88215 30921 ft 424 kts 180°
2026-05-07 17:47 43.29511 1.88776 30919 ft 424 kts 180°
2026-05-07 17:47 43.23618 1.89339 30923 ft 424 kts 180°
2026-05-07 17:48 43.17735 1.89903 30925 ft 421 kts 180°
2026-05-07 17:48 43.11913 1.90458 30913 ft 420 kts 180°
2026-05-07 17:49 43.06088 1.91012 30908 ft 420 kts 181°
2026-05-07 17:49 43.00267 1.91567 30924 ft 420 kts 181°
2026-05-07 17:50 42.94463 1.92117 30940 ft 419 kts 181°
2026-05-07 17:50 42.88669 1.92665 30940 ft 418 kts 181°
2026-05-07 17:51 42.82863 1.93213 30946 ft 418 kts 181°
2026-05-07 17:51 42.77038 1.93761 30944 ft 418 kts 181°
2026-05-07 17:52 42.71252 1.94306 30958 ft 418 kts 181°
2026-05-07 17:52 42.65470 1.95032 30954 ft 419 kts 176°
2026-05-07 17:53 42.59707 1.96212 30946 ft 420 kts 176°
2026-05-07 17:53 42.53954 1.97375 30969 ft 419 kts 176°
2026-05-07 17:54 42.48182 1.98537 30977 ft 419 kts 176°
2026-05-07 17:54 42.42444 1.99692 30975 ft 419 kts 176°
2026-05-07 17:55 42.36692 2.00825 30965 ft 415 kts 178°
2026-05-07 17:55 42.30949 2.01397 30963 ft 413 kts 180°
2026-05-07 17:56 42.25237 2.01933 30974 ft 413 kts 180°
2026-05-07 17:56 42.19506 2.02476 30964 ft 413 kts 180°
2026-05-07 17:57 42.14763 2.02925 30972 ft 412 kts 180°
2026-05-07 17:57 42.08100 2.03555 30962 ft 411 kts 180°
2026-05-07 17:58 42.02407 2.04091 30956 ft 410 kts 180°
2026-05-07 17:58 41.96738 2.04624 30940 ft 409 kts 180°
2026-05-07 17:59 41.91095 2.05162 30975 ft 404 kts 181°
2026-05-07 17:59 41.85486 2.05684 30974 ft 405 kts 181°
2026-05-07 18:00 41.79894 2.06208 30974 ft 405 kts 181°
2026-05-07 18:00 41.74263 2.06732 30970 ft 403 kts 180°
2026-05-07 18:01 41.68729 2.07247 30958 ft 400 kts 180°
2026-05-07 18:01 41.63169 2.07767 30954 ft 400 kts 180°
2026-05-07 18:02 41.54832 2.08544 30952 ft 400 kts 180°
2026-05-07 18:03 41.49311 2.09054 30952 ft 400 kts 179°
2026-05-07 18:03 41.43762 2.09568 30956 ft 400 kts 179°
2026-05-07 18:04 41.38208 2.10083 30953 ft 400 kts 179°
2026-05-07 18:04 41.32645 2.10597 30944 ft 401 kts 179°
2026-05-07 18:05 41.27073 2.11372 30943 ft 403 kts 175°
2026-05-07 18:05 41.21500 2.12316 30953 ft 404 kts 175°
2026-05-07 18:06 41.15911 2.13255 30961 ft 405 kts 175°
2026-05-07 18:06 41.10355 2.14185 30957 ft 406 kts 175°
2026-05-07 18:07 41.04747 2.15121 30958 ft 407 kts 175°
2026-05-07 18:07 41.00073 2.15902 30964 ft 407 kts 175°
2026-05-07 18:08 40.94440 2.16840 30968 ft 408 kts 175°
2026-05-07 18:08 40.88800 2.17778 30962 ft 408 kts 175°
2026-05-07 18:09 40.83156 2.18714 30958 ft 409 kts 175°
2026-05-07 18:09 40.77505 2.19651 30967 ft 409 kts 175°
2026-05-07 18:10 40.71852 2.20587 30968 ft 409 kts 175°
2026-05-07 18:10 40.66233 2.21515 30966 ft 410 kts 175°
2026-05-07 18:11 40.60570 2.22449 30967 ft 409 kts 175°
2026-05-07 18:11 40.54909 2.23382 30965 ft 409 kts 175°
2026-05-07 18:12 40.49261 2.24311 30958 ft 409 kts 175°
2026-05-07 18:12 40.43607 2.25238 30936 ft 409 kts 174°
2026-05-07 18:13 40.37987 2.26488 30936 ft 410 kts 171°
2026-05-07 18:13 40.32420 2.27942 30935 ft 411 kts 171°
2026-05-07 18:14 40.26805 2.29399 30933 ft 413 kts 171°
2026-05-07 18:14 40.21087 2.30878 30946 ft 423 kts 172°
2026-05-07 18:15 40.15263 2.32385 30943 ft 426 kts 172°
2026-05-07 18:15 40.09444 2.33885 30941 ft 426 kts 172°
2026-05-07 18:16 40.03661 2.35371 30941 ft 426 kts 172°
2026-05-07 18:16 39.97848 2.36865 30938 ft 424 kts 173°
2026-05-07 18:17 39.92055 2.38349 30934 ft 424 kts 173°
2026-05-07 18:17 39.86255 2.39831 30935 ft 424 kts 173°
2026-05-07 18:18 39.80462 2.41309 30934 ft 424 kts 173°
2026-05-07 18:18 39.74640 2.42265 30939 ft 419 kts 181°
2026-05-07 18:19 39.68846 2.41742 30936 ft 416 kts 189°
2026-05-07 18:19 39.63131 2.40844 30935 ft 416 kts 189°
2026-05-07 18:20 39.57407 2.39758 30937 ft 415 kts 196°
2026-05-07 18:20 39.52107 2.36882 30923 ft 415 kts 211°
2026-05-07 18:21 39.47394 2.32547 30927 ft 415 kts 215°
2026-05-07 18:21 39.42725 2.28185 30929 ft 419 kts 215°
2026-05-07 18:21 39.40322 2.25951 30771 ft 427 kts 215°
2026-05-07 18:22 39.37912 2.23709 30524 ft 425 kts 215°
2026-05-07 18:22 39.36320 2.22230 30360 ft 423 kts 215°
2026-05-07 18:22 39.33151 2.19287 30049 ft 422 kts 215°
2026-05-07 18:22 39.30752 2.17063 29757 ft 422 kts 215°
2026-05-07 18:23 39.28369 2.14855 29458 ft 420 kts 215°
2026-05-07 18:23 39.26024 2.12684 28889 ft 419 kts 215°
2026-05-07 18:23 39.23656 2.10493 28292 ft 415 kts 215°
2026-05-07 18:23 39.21317 2.08330 27696 ft 409 kts 215°
2026-05-07 18:24 39.19043 2.06229 27107 ft 404 kts 215°
2026-05-07 18:24 39.16767 2.04128 26528 ft 399 kts 215°
2026-05-07 18:24 39.14515 2.02051 25952 ft 395 kts 214°
2026-05-07 18:24 39.12312 2.00022 25385 ft 391 kts 214°
2026-05-07 18:25 39.10104 1.97990 24831 ft 387 kts 215°
2026-05-07 18:25 39.07910 1.95977 24233 ft 385 kts 216°
2026-05-07 18:25 39.05728 1.93973 23630 ft 383 kts 216°
2026-05-07 18:25 39.03595 1.92012 23065 ft 379 kts 216°
2026-05-07 18:26 39.01452 1.90043 22501 ft 375 kts 215°
2026-05-07 18:26 38.99419 1.87955 21931 ft 371 kts 221°
2026-05-07 18:26 38.97654 1.85600 21382 ft 369 kts 229°
2026-05-07 18:26 38.96128 1.82960 20808 ft 367 kts 234°
2026-05-07 18:27 38.94724 1.80239 20260 ft 364 kts 234°
2026-05-07 18:27 38.93319 1.77540 19700 ft 362 kts 234°
2026-05-07 18:27 38.91919 1.74861 19143 ft 360 kts 234°
2026-05-07 18:27 38.90522 1.72195 18552 ft 359 kts 233°
2026-05-07 18:28 38.89126 1.69536 17999 ft 358 kts 233°
2026-05-07 18:28 38.87756 1.66929 17430 ft 355 kts 234°
2026-05-07 18:28 38.86377 1.64317 16881 ft 351 kts 235°
2026-05-07 18:28 38.85026 1.61723 16329 ft 348 kts 237°
2026-05-07 18:29 38.83895 1.58988 15781 ft 346 kts 245°
2026-05-07 18:29 38.83085 1.56119 15238 ft 345 kts 252°
2026-05-07 18:29 38.82446 1.53156 14693 ft 343 kts 252°
2026-05-07 18:29 38.81809 1.50250 14150 ft 340 kts 253°
2026-05-07 18:30 38.81165 1.47334 13607 ft 338 kts 252°
2026-05-07 18:30 38.80514 1.44440 13085 ft 333 kts 250°
2026-05-07 18:30 38.79679 1.41771 12927 ft 317 kts 243°
2026-05-07 18:30 38.78675 1.39353 12788 ft 303 kts 240°
2026-05-07 18:31 38.77707 1.37035 12604 ft 285 kts 241°
2026-05-07 18:31 38.76807 1.34855 12409 ft 269 kts 241°
2026-05-07 18:31 38.75956 1.32787 12137 ft 256 kts 241°
2026-05-07 18:31 38.75149 1.30833 11899 ft 246 kts 241°
2026-05-07 18:32 38.74318 1.28832 11647 ft 260 kts 241°
2026-05-07 18:32 38.73470 1.26789 11403 ft 258 kts 241°
2026-05-07 18:32 38.72638 1.24788 11156 ft 254 kts 241°
2026-05-07 18:32 38.71811 1.22805 10909 ft 256 kts 240°
2026-05-07 18:33 38.70976 1.20805 10614 ft 254 kts 241°
2026-05-07 18:33 38.70150 1.18829 10261 ft 250 kts 241°
2026-05-07 18:33 38.69330 1.16868 9912 ft 250 kts 241°
2026-05-07 18:33 38.68509 1.14903 9548 ft 250 kts 241°
2026-05-07 18:34 38.67690 1.12941 9186 ft 249 kts 241°
2026-05-07 18:34 38.66875 1.10995 8836 ft 248 kts 241°
2026-05-07 18:34 38.66061 1.09056 8487 ft 247 kts 242°
2026-05-07 18:34 38.65248 1.07118 8142 ft 247 kts 242°
2026-05-07 18:35 38.64568 1.05113 7871 ft 243 kts 253°
2026-05-07 18:35 38.64236 1.03053 7674 ft 237 kts 261°
2026-05-07 18:35 38.63989 1.00986 7418 ft 233 kts 261°
2026-05-07 18:35 38.63833 0.98935 7136 ft 231 kts 277°
2026-05-07 18:36 38.64409 0.97067 6866 ft 227 kts 309°
2026-05-07 18:36 38.65667 0.95837 6603 ft 230 kts 333°
2026-05-07 18:36 38.67088 0.94937 6320 ft 225 kts 345°
2026-05-07 18:36 38.68600 0.94859 6052 ft 216 kts 15°
2026-05-07 18:37 38.69886 0.95767 5802 ft 214 kts 44°
2026-05-07 18:37 38.70730 0.97378 5548 ft 221 kts 59°
2026-05-07 18:37 38.71460 0.99104 5361 ft 218 kts 60°
2026-05-07 18:37 38.72161 1.00804 5263 ft 218 kts 60°
2026-05-07 18:38 38.72870 1.02512 5167 ft 217 kts 60°
2026-05-07 18:38 38.73579 1.04219 5065 ft 219 kts 60°
2026-05-07 18:38 38.74287 1.05929 4967 ft 215 kts 60°
2026-05-07 18:38 38.74992 1.07628 4755 ft 215 kts 60°
2026-05-07 18:39 38.75689 1.09309 4512 ft 213 kts 59°
2026-05-07 18:39 38.76388 1.10993 4249 ft 215 kts 60°
2026-05-07 18:39 38.77084 1.12674 3976 ft 213 kts 60°
2026-05-07 18:39 38.77776 1.14343 3703 ft 212 kts 60°
2026-05-07 18:40 38.78462 1.16000 3434 ft 209 kts 59°
2026-05-07 18:40 38.79140 1.17636 3155 ft 206 kts 59°
2026-05-07 18:40 38.79805 1.19241 2889 ft 202 kts 58°
2026-05-07 18:40 38.80460 1.20823 2619 ft 200 kts 59°
2026-05-07 18:41 38.81106 1.22386 2354 ft 197 kts 58°
2026-05-07 18:41 38.81744 1.23927 2087 ft 194 kts 59°
2026-05-07 18:41 38.82375 1.25449 1827 ft 193 kts 58°
2026-05-07 18:41 38.83002 1.26963 1601 ft 188 kts 59°
2026-05-07 18:42 38.83562 1.28326 1339 ft 162 kts 58°
2026-05-07 18:42 38.84057 1.29521 1118 ft 140 kts 58°
2026-05-07 18:42 38.84522 1.30634 947 ft 147 kts 57°
2026-05-07 18:42 38.84983 1.31759 760 ft 135 kts 58°
2026-05-07 18:43 38.85434 1.32839 578 ft 141 kts 59°
2026-05-07 18:43 38.85910 1.33993 394 ft 149 kts 60°
2026-05-07 18:43 38.86381 1.35139 182 ft 137 kts 58°
2026-05-07 18:43 38.86823 1.36199 26 ft 138 kts 59°
2026-05-07 18:44 38.87201 1.37105 13 ft 77 kts 62°
2026-05-07 18:44 38.87384 1.37441 10 ft 28 kts 34°
2026-05-07 18:44 38.87507 1.37541 9 ft 18 kts 32°
2026-05-07 18:44 38.87606 1.37541 9 ft 14 kts 330°
2026-05-07 18:45 38.87685 1.37481 8 ft 13 kts 319°
2026-05-07 18:45 38.87680 1.37386 8 ft 12 kts 243°
2026-05-07 18:45 38.87641 1.37292 8 ft 12 kts 240°
2026-05-07 18:45 38.87601 1.37198 8 ft 11 kts 242°
2026-05-07 18:46 38.87627 1.37136 8 ft 7 kts 343°
2026-05-07 18:46 38.87647 1.37145 8 ft 0 kts 22°
2026-05-07 18:46 38.87650 1.37147 8 ft 2 kts 24°
2026-05-07 18:46 38.87654 1.37149 9 ft 0 kts 18°